This is the latest recevied weather packets stored in our database for station/object K5NWZ. If no packets are shown the sender has not sent any weather packets the latest 10 day(s).
| Time | Temp. | Humidity | Pressure | Rain* | Wind** | Luminosity | Snow |
|---|---|---|---|---|---|---|---|
| 1787868867 | 32.22° C | 31% | 1029.6 hPa | 0 mm | - | 253 W/m² | - |
| 1787868566 | 32.22° C | 31% | 1029.7 hPa | 0 mm | - | 523 W/m² | - |
| 1787868265 | 32.78° C | 31% | 1029.8 hPa | 0 mm | - | 515 W/m² | - |
| 1787867960 | 32.78° C | 30% | 1029.9 hPa | 0 mm | - | 461 W/m² | - |
| 1787867656 | 32.78° C | 27% | 1029.8 hPa | 0 mm | - | 486 W/m² | - |
| 1787867356 | 32.22° C | 26% | 1029.7 hPa | 0 mm | - | 530 W/m² | - |
| 1787867052 | 32.22° C | 28% | 1029.9 hPa | 0 mm | - | 240 W/m² | - |
| 1787866747 | 32.22° C | 27% | 1030.3 hPa | 0 mm | - | 680 W/m² | - |
| 1787866446 | 31.67° C | 28% | 1030.1 hPa | 0 mm | - | 408 W/m² | - |
| 1787866145 | 31.67° C | 29% | 1030.2 hPa | 0 mm | - | 197 W/m² | - |
| 1787865841 | 31.67° C | 28% | 1030.3 hPa | 0 mm | - | 146 W/m² | - |
| 1787865536 | 31.67° C | 29% | 1030.3 hPa | 0 mm | - | 147 W/m² | - |
| 1787865231 | 32.22° C | 28% | 1030.5 hPa | 0 mm | - | 319 W/m² | - |
| 1787864927 | 33.33° C | 28% | 1030.3 hPa | 0 mm | - | 669 W/m² | - |
| 1787864622 | 32.78° C | 28% | 1030.4 hPa | 0 mm | - | 645 W/m² | - |
| 1787864316 | 32.78° C | 28% | 1030.4 hPa | 0 mm | - | 654 W/m² | - |
| 1787864011 | 32.22° C | 28% | 1030.3 hPa | 0 mm | - | 683 W/m² | - |
| 1787863709 | 32.22° C | 28% | 1030.3 hPa | 0 mm | - | 670 W/m² | - |
| 1787863408 | 32.22° C | 29% | 1030.4 hPa | 0 mm | - | 649 W/m² | - |
| 1787863104 | 32.22° C | 29% | 1030.2 hPa | 0 mm | - | 665 W/m² | - |
| 1787862800 | 32.22° C | 31% | 1030.4 hPa | 0 mm | - | 679 W/m² | - |
| 1787862499 | 32.22° C | 32% | 1030.4 hPa | 0 mm | - | 660 W/m² | - |
| 1787862194 | 32.22° C | 31% | 1030.4 hPa | 0 mm | - | 662 W/m² | - |
| 1787861889 | 31.67° C | 33% | 1030.4 hPa | 0 mm | - | 662 W/m² | - |
| 1787861589 | 31.11° C | 33% | 1030.6 hPa | 0 mm | - | 675 W/m² | - |
* Rain latest hour (hover to see other rain measurements)
** Current wind speed in m/s (hover to see current wind gust speed)